Volver al catálogo

COSMOS 800

ActivoMilitarPO
NORAD 8645·PAYLOAD·🇷🇺 Russia

Lanzado Feb 3, 1976 desde Plesetsk Cosmodrome

Loading…

Próximos Pases (próximas 24 horas)

TLE

ActualizadoSource: Space-Track

Época: Sep 14, 2026, 22:07 UTC

1 08645U 76011A   26257.92188022  .00000029  00000-0  14878-4 0  9995
2 08645  82.9711  50.7320 0022693  91.5121  73.5290 13.72206868533696

Sigue COSMOS 800 en tiempo real con AllMySat

Download on the App Store